This is the latest recevied weather packets stored in our database for station/object WB0YAF-8. If no packets are shown the sender has not sent any weather packets the latest 1 day(s).
| Time | Temp. | Humidity | Pressure | Rain* | Wind** | Luminosity | Snow |
|---|---|---|---|---|---|---|---|
| 1778092976 | 0.56° C | 53% | 1018.8 hPa | 0 mm | - | - | - |
| 1778091475 | 1.11° C | 59% | 1018.8 hPa | 0 mm | - | - | - |
| 1778089976 | 1.11° C | 58% | 1018.8 hPa | 0 mm | - | - | - |
| 1778089676 | 1.11° C | 58% | 1018.8 hPa | 0 mm | - | - | - |
| 1778088774 | 0° C | 63% | 1018.8 hPa | 0 mm | - | - | - |
| 1778088175 | -0.56° C | 66% | 1017.8 hPa | 0 mm | - | - | - |
| 1778086676 | -0.56° C | 67% | 1018.8 hPa | 0 mm | - | - | - |
| 1778085175 | -0.56° C | 66% | 1018.8 hPa | 0 mm | - | - | - |
| 1778084875 | -0.56° C | 66% | 1017.8 hPa | 0 mm | - | - | - |
| 1778084576 | -0.56° C | 66% | 1017.8 hPa | 0 mm | - | - | - |
| 1778083675 | -0.56° C | 60% | 1017.8 hPa | 0 mm | - | - | - |
| 1778083375 | -0.56° C | 62% | 1017.8 hPa | 0 mm | - | - | - |
| 1778081876 | 0° C | 62% | 1017.8 hPa | 0 mm | - | - | - |
| 1778081576 | 0° C | 61% | 1017.8 hPa | 0 mm | - | - | - |
| 1778080075 | -0.56° C | 60% | 1017.8 hPa | 0 mm | - | - | - |
| 1778079175 | -1.11° C | 64% | 1017.8 hPa | 0 mm | - | - | - |
| 1778078875 | -1.11° C | 63% | 1017.8 hPa | 0 mm | - | - | - |
| 1778078575 | -1.11° C | 63% | 1017.8 hPa | 0 mm | - | - | - |
| 1778078275 | -1.11° C | 61% | 1017.8 hPa | 0 mm | - | - | - |
| 1778076775 | -1.11° C | 62% | 1017.8 hPa | 0 mm | - | - | - |
| 1778076475 | -1.11° C | 63% | 1017.8 hPa | 0 mm | - | - | - |
| 1778074676 | -1.67° C | 67% | 1016.8 hPa | 0 mm | - | - | - |
| 1778074376 | -1.67° C | 66% | 1016.8 hPa | 0 mm | - | - | - |
| 1778072875 | -1.67° C | 66% | 1016.8 hPa | 0 mm | - | - | - |
| 1778072575 | -1.67° C | 66% | 1016.8 hPa | 0 mm | - | - | - |
* Rain latest hour (hover to see other rain measurements)
** Current wind speed in m/s (hover to see current wind gust speed)